Time[GMT],significant_wave_height[m](0m),dominant_wave_period[s](0m),max_wave_height[m](0m),mean_wave_direction[degrees](0m),mean_wave_direction_spread[degrees](0m)
2017-05-03 15:00, 0.91,6.5,1.31,120.50,31.00
2017-05-03 16:00, 0.91,6.3,1.46,117.50,30.00
2017-05-03 17:00, 0.92,6.1,1.53,120.50,29.00
2017-05-03 19:00, 0.87,5.3,1.37,118.50,27.00
2017-05-03 20:00, 0.92,5.9,1.64,112.50,28.00
2017-05-03 21:00, 1.04,5.4,1.76,112.50,25.00
2017-05-03 22:00, 0.92,5.7,1.63,110.50,27.00
2017-05-04 00:00, 0.93,,1.60,110.50,34.00
2017-05-04 01:00, 1.00,4.8,1.51,100.50,33.00
2017-05-04 02:00, 0.95,5.6,1.42,104.50,33.00
2017-05-04 03:00, 0.85,4.7,1.55,110.50,34.00
2017-05-04 04:00, 0.86,4.9,1.29,110.50,30.00
2017-05-04 05:00, 0.95,5.0,1.92,115.50,27.00
2017-05-04 07:00, 0.98,5.0,1.56,115.50,26.00
2017-05-04 08:00, 0.99,5.1,1.74,116.50,26.00
2017-05-04 09:00, 0.98,4.7,1.72,113.50,28.00
2017-05-04 10:00, 0.96,5.3,1.49,108.50,29.00
2017-05-04 12:00, 0.95,5.1,1.55,105.50,30.00
2017-05-04 13:00, 0.85,5.6,1.58,108.50,29.00
2017-05-04 14:00, 0.89,5.4,1.42,108.50,33.00
2017-05-04 15:00, 0.93,5.4,1.47,109.50,35.00
2017-05-04 16:00, 0.98,5.6,1.40,113.50,30.00
2017-05-04 17:00, 1.05,5.7,1.69,113.50,28.00
2017-05-04 19:00, 1.10,5.9,1.94,121.50,29.00
2017-05-04 20:00, 1.06,,2.00,120.50,33.00
2017-05-04 21:00, 1.14,4.8,1.64,112.50,31.00
2017-05-04 22:00, 1.15,5.3,1.92,115.50,28.00
2017-05-04 23:00, 1.12,4.8,1.66,114.50,29.00
2017-05-05 00:00, 1.05,5.4,2.10,116.50,36.00
2017-05-05 01:00, 1.05,5.6,1.56,116.50,35.00
2017-05-05 04:00, 0.92,5.0,1.60,113.50,31.00
2017-05-05 06:00, 1.00,5.7,1.77,116.50,26.00
2017-05-05 07:00, 1.09,5.9,1.69,121.50,24.00
2017-05-05 08:00, 1.05,5.6,1.72,119.50,23.00
2017-05-05 10:00, 1.13,5.7,2.26,108.50,25.00
2017-05-05 11:00, 1.05,5.4,1.89,109.50,29.00
2017-05-05 12:00, 1.09,5.3,2.17,106.50,30.00
2017-05-05 13:00, 1.13,5.7,1.84,108.50,28.00
2017-05-05 15:00, 1.20,6.1,1.86,109.50,32.00
2017-05-05 16:00, 1.13,5.7,2.01,114.50,28.00
2017-05-05 17:00, 1.17,5.7,2.03,121.50,29.00
2017-05-05 19:00, 1.14,5.9,2.14,115.50,32.00
2017-05-05 20:00, 1.28,5.9,2.34,114.50,26.00
2017-05-05 21:00, 1.16,5.9,2.11,116.50,29.00
2017-05-05 22:00, 1.32,5.7,2.09,115.50,27.00
2017-05-06 00:00, 1.32,6.1,2.17,114.50,32.00
2017-05-06 01:00, 1.11,5.7,1.88,108.50,33.00
2017-05-06 02:00, 1.15,5.9,2.20,104.50,30.00
2017-05-06 05:00, 1.09,6.1,1.91,113.50,33.00
2017-05-06 06:00, 1.13,5.9,2.12,112.50,28.00
2017-05-06 07:00, 1.06,5.9,1.59,118.50,30.00
2017-05-06 08:00, 1.07,5.7,1.91,121.50,27.00
2017-05-06 09:00, 0.98,6.1,2.06,124.50,28.00
2017-05-06 10:00, 1.08,5.7,1.76,116.50,28.00
2017-05-06 11:00, 1.11,5.3,1.84,119.50,29.00
2017-05-06 12:00, 1.10,6.1,1.86,116.50,28.00
2017-05-06 13:00, 1.25,6.7,2.07,119.50,27.00
2017-05-06 14:00, 1.26,5.9,2.01,116.50,26.00
2017-05-06 16:00, 1.26,6.3,2.20,118.50,28.00
2017-05-06 18:00, 1.24,6.1,1.86,122.50,28.00
2017-05-06 20:00, 1.07,6.3,1.74,125.50,31.00
2017-05-06 21:00, 1.20,6.3,1.86,121.50,28.00
2017-05-07 01:00, 1.14,6.1,1.82,119.50,31.00
2017-05-07 02:00, 1.16,5.7,1.73,121.50,33.00
2017-05-07 03:00, 1.12,6.1,1.74,120.50,31.00
2017-05-07 04:00, 1.07,6.3,1.69,122.50,31.00
2017-05-07 05:00, 1.00,6.1,1.61,121.50,30.00
2017-05-07 06:00, 0.94,6.3,1.55,118.50,33.00
2017-05-07 07:00, 0.90,6.3,1.36,125.50,32.00
2017-05-07 08:00, 0.89,5.9,1.39,124.50,30.00
2017-05-07 09:00, 0.82,5.9,1.59,122.50,30.00
2017-05-07 10:00, 0.89,6.1,1.41,126.50,29.00
2017-05-07 12:00, 1.04,5.6,1.75,127.50,24.00
2017-05-07 13:00, 1.07,5.9,1.88,122.50,27.00
2017-05-07 14:00, 1.15,6.1,1.90,122.50,29.00
2017-05-07 15:00, 1.22,5.9,2.01,122.50,29.00
2017-05-07 16:00, 1.23,,2.08,125.50,37.00
2017-05-07 17:00, 1.24,5.6,2.17,120.50,31.00
2017-05-07 18:00, 1.25,6.3,1.99,116.50,33.00
2017-05-07 19:00, 1.21,6.3,1.90,115.50,30.00
2017-05-07 20:00, 1.21,5.4,1.72,119.50,34.00
2017-05-07 21:00, 1.19,5.9,1.98,117.50,34.00
2017-05-07 22:00, 1.15,6.5,1.88,119.50,30.00
2017-05-08 00:00, 1.11,6.3,2.01,117.50,34.00
2017-05-08 02:00, 1.06,6.3,2.30,121.50,29.00
2017-05-08 03:00, 1.06,5.9,1.55,122.50,28.00
2017-05-08 04:00, 1.02,5.9,1.83,124.50,29.00
2017-05-08 06:00, 1.02,5.9,1.86,124.50,28.00
2017-05-08 07:00, 1.00,6.3,1.80,122.50,26.00
2017-05-08 08:00, 0.96,5.9,1.60,122.50,29.00
2017-05-08 09:00, 0.89,6.1,1.44,121.50,29.00
2017-05-08 10:00, 0.88,5.9,1.44,122.50,30.00
2017-05-08 11:00, 0.90,6.5,1.56,124.50,29.00
2017-05-08 12:00, 1.00,6.5,1.59,126.50,28.00
2017-05-08 13:00, 1.00,5.6,1.68,120.50,27.00
2017-05-08 14:00, 1.02,5.6,1.69,122.50,29.00
2017-05-08 16:00, 1.01,5.7,1.59,118.50,27.00
2017-05-08 17:00, 0.97,5.6,1.58,117.50,31.00
2017-05-08 18:00, 1.02,6.1,1.74,112.50,30.00
2017-05-08 19:00, 1.03,5.6,1.65,108.50,32.00
2017-05-08 20:00, 1.01,5.6,1.63,116.50,32.00
2017-05-08 21:00, 0.90,6.1,1.31,116.50,32.00
2017-05-08 22:00, 0.86,6.1,1.26,118.50,31.00
2017-05-08 23:00, 0.88,6.1,1.46,117.50,31.00
2017-05-09 00:00, 0.93,6.3,1.67,116.50,30.00
2017-05-09 01:00, 0.87,5.9,1.34,118.50,32.00
2017-05-09 02:00, 0.90,6.5,1.51,117.50,27.00
2017-05-09 03:00, 0.93,6.5,1.94,115.50,27.00
2017-05-09 04:00, 0.94,6.1,1.48,118.50,25.00
2017-05-09 05:00, 0.92,6.1,1.53,119.50,26.00
2017-05-09 06:00, 0.89,5.6,1.76,116.50,26.00
2017-05-09 07:00, 0.88,6.3,1.52,120.50,29.00
2017-05-09 08:00, 0.88,5.9,1.71,120.50,28.00
2017-05-09 09:00, 0.87,6.1,1.50,123.50,29.00
2017-05-09 10:00, 0.87,6.3,1.35,122.50,30.00
2017-05-09 11:00, 0.85,6.3,1.71,125.50,29.00
2017-05-09 12:00, 0.88,6.7,1.57,127.50,27.00
2017-05-09 14:00, 0.92,7.7,1.73,128.50,25.00
2017-05-09 16:00, 0.93,5.9,1.39,128.50,25.00
2017-05-09 18:00, 0.99,5.9,1.51,124.50,28.00
2017-05-09 19:00, 0.91,6.1,1.39,120.50,28.00
2017-05-09 21:00, 0.88,5.3,1.38,118.50,31.00
2017-05-09 23:00, 0.77,6.1,1.25,121.50,31.00
2017-05-10 00:00, 0.80,6.1,1.40,122.50,31.00
2017-05-10 01:00, 0.91,6.1,1.55,124.50,29.00
2017-05-10 02:00, 0.94,5.7,1.43,121.50,30.00
2017-05-10 04:00, 1.04,6.7,1.88,115.50,25.00
2017-05-10 05:00, 1.06,5.6,1.49,114.50,31.00
2017-05-10 06:00, 0.94,5.9,1.33,106.50,27.00
2017-05-10 08:00, 0.86,5.7,1.52,116.50,27.00
2017-05-10 10:00, 0.77,5.9,1.48,122.50,28.00
2017-05-10 11:00, 0.68,6.3,1.25,122.50,32.00
2017-05-10 12:00, 0.70,6.7,1.10,119.50,30.00
2017-05-10 13:00, 0.70,6.1,1.17,123.50,28.00
2017-05-10 14:00, 0.68,5.9,1.14,126.50,27.00
2017-05-10 17:00, 0.82,5.6,1.66,116.50,27.00
2017-05-10 18:00, 0.88,5.7,1.47,117.50,28.00
2017-05-10 19:00, 0.84,5.4,1.46,114.50,30.00
2017-05-10 20:00, 0.90,5.9,1.89,111.50,31.00
2017-05-10 21:00, 0.85,6.5,1.44,112.50,32.00
2017-05-10 22:00, 0.78,7.4,1.24,118.50,30.00
2017-05-11 00:00, 0.79,6.3,1.26,115.50,32.00
2017-05-11 03:00, 0.84,6.3,1.39,122.50,26.00
2017-05-11 04:00, 0.87,6.1,1.29,121.50,26.00
2017-05-11 05:00, 0.80,6.3,1.27,123.50,29.00
2017-05-11 06:00, 0.96,6.3,1.41,117.50,26.00
2017-05-11 07:00, 0.90,6.1,1.37,122.50,27.00
2017-05-11 08:00, 0.88,6.5,1.46,122.50,25.00
2017-05-11 09:00, 0.84,6.3,1.71,122.50,26.00
2017-05-11 10:00, 0.80,6.3,1.52,124.50,28.00
2017-05-11 12:00, 0.73,6.3,1.14,128.50,32.00
2017-05-11 13:00, 0.76,6.1,1.05,131.50,30.00
2017-05-11 15:00, 0.73,6.7,1.23,134.50,25.00
2017-05-11 16:00, 0.72,5.9,1.15,134.50,27.00
2017-05-11 17:00, 0.72,6.1,1.27,133.50,28.00
2017-05-11 18:00, 0.66,5.7,1.29,134.50,28.00
2017-05-11 19:00, 0.74,5.6,1.10,130.50,29.00
2017-05-11 20:00, 0.72,5.4,1.17,114.50,37.00
2017-05-11 21:00, 0.72,6.1,1.34,122.50,30.00
2017-05-11 23:00, 0.81,5.6,1.32,120.50,30.00
2017-05-12 00:00, 0.82,5.4,1.27,121.50,30.00
2017-05-12 01:00, 0.79,5.4,1.21,115.50,32.00
2017-05-12 02:00, 0.74,5.4,1.26,125.50,29.00
2017-05-12 03:00, 0.74,5.3,1.07,126.50,28.00
2017-05-12 04:00, 0.77,5.7,1.08,127.50,26.00
2017-05-12 05:00, 0.69,5.7,1.11,127.50,29.00
2017-05-12 06:00, 0.71,5.3,1.14,131.50,29.00
2017-05-12 07:00, 0.69,5.6,1.29,129.50,27.00
2017-05-12 09:00, 0.67,6.3,1.15,129.50,28.00
2017-05-12 12:00, 0.65,7.7,1.02,130.50,28.00
2017-05-12 13:00, 0.62,6.1,0.93,137.50,29.00
2017-05-12 14:00, 0.57,8.0,1.12,136.50,29.00
2017-05-12 15:00, 0.62,6.1,0.95,135.50,25.00
2017-05-12 16:00, 0.62,6.3,0.90,136.50,27.00
2017-05-12 17:00, 0.62,6.3,0.95,136.50,27.00
2017-05-12 18:00, 0.65,5.9,0.94,137.50,25.00
2017-05-12 19:00, 0.67,8.0,0.95,133.50,26.00
2017-05-12 20:00, 0.70,5.7,1.20,129.50,28.00
2017-05-12 22:00, 0.72,7.7,1.11,124.50,32.00
2017-05-12 23:00, 0.80,6.3,1.29,123.50,31.00
2017-05-13 00:00, 0.79,7.7,1.24,124.50,34.00
2017-05-13 01:00, 0.77,,1.28,115.50,36.00
2017-05-13 02:00, 0.77,3.6,1.44,119.50,33.00
2017-05-13 03:00, 0.70,6.1,1.23,121.50,35.00
2017-05-13 04:00, 0.70,8.7,1.26,114.50,33.00
2017-05-13 05:00, 0.65,8.3,1.02,125.50,29.00
2017-05-13 06:00, 0.65,8.3,1.01,131.50,26.00
2017-05-13 07:00, 0.67,6.3,1.33,131.50,27.00
2017-05-13 08:00, 0.68,8.3,1.08,126.50,29.00
2017-05-13 09:00, 0.66,5.9,0.99,129.50,28.00
2017-05-13 10:00, 0.65,5.6,1.01,129.50,27.00
2017-05-13 12:00, 0.60,8.7,0.99,131.50,30.00
2017-05-13 14:00, 0.59,6.3,1.01,132.50,28.00
2017-05-13 15:00, 0.58,6.5,0.85,134.50,28.00
2017-05-13 16:00, 0.54,8.0,0.85,134.50,30.00
2017-05-13 17:00, 0.60,8.3,0.98,131.50,31.00
2017-05-13 18:00, 0.60,8.3,1.18,133.50,28.00
2017-05-13 19:00, 0.62,8.0,0.97,136.50,30.00
2017-05-13 20:00, 0.63,5.9,1.10,133.50,29.00
2017-05-13 21:00, 0.72,7.7,1.20,136.50,32.00
2017-05-13 23:00, 0.79,5.7,1.23,124.50,33.00
2017-05-14 01:00, 0.83,7.1,1.40,126.50,30.00
2017-05-14 02:00, 0.82,8.0,1.23,122.50,32.00
2017-05-14 03:00, 0.79,6.1,1.39,130.50,28.00
2017-05-14 04:00, 0.73,5.7,1.20,128.50,30.00
2017-05-14 05:00, 0.70,5.6,1.33,131.50,29.00
2017-05-14 06:00, 0.84,6.3,1.43,132.50,27.00
2017-05-14 07:00, 0.77,6.3,1.20,129.50,28.00
2017-05-14 08:00, 0.84,6.7,1.20,132.50,25.00
2017-05-14 09:00, 0.82,6.9,1.37,131.50,27.00
2017-05-14 10:00, 0.81,6.9,1.17,131.50,26.00
2017-05-14 12:00, 0.90,6.5,1.46,133.50,25.00
2017-05-14 13:00, 1.00,6.7,1.66,130.50,27.00
2017-05-14 14:00, 1.01,4.7,1.63,127.50,27.00
2017-05-14 15:00, 0.97,4.7,1.80,128.50,31.00
2017-05-14 16:00, 1.01,4.9,1.61,126.50,31.00
2017-05-14 17:00, 0.95,5.1,1.43,123.50,30.00
2017-05-14 18:00, 0.97,5.1,1.78,124.50,29.00
2017-05-14 19:00, 0.91,5.1,1.37,123.50,32.00
2017-05-14 20:00, 0.92,5.0,1.44,122.50,31.00
2017-05-14 21:00, 0.91,4.9,1.38,126.50,30.00
2017-05-14 22:00, 0.86,4.8,1.48,123.50,30.00
2017-05-14 23:00, 0.84,5.3,1.33,127.50,29.00
2017-05-15 00:00, 0.84,5.9,1.33,124.50,31.00
2017-05-15 01:00, 0.88,5.7,1.43,122.50,34.00
2017-05-15 03:00, 0.94,5.3,1.38,121.50,32.00
2017-05-15 05:00, 0.91,5.4,1.40,121.50,31.00
2017-05-15 06:00, 0.97,5.7,1.66,116.50,30.00
2017-05-15 07:00, 0.98,5.7,1.64,118.50,30.00
2017-05-15 08:00, 0.90,5.4,1.39,121.50,33.00
2017-05-15 09:00, 0.92,5.6,1.52,121.50,32.00
2017-05-15 10:00, 0.98,5.6,1.70,122.50,32.00
2017-05-15 11:00, 1.03,5.7,1.78,122.50,31.00
2017-05-15 14:00, 1.02,5.4,1.74,116.50,32.00
2017-05-15 15:00, 1.06,5.9,1.75,118.50,30.00
2017-05-15 16:00, 1.00,5.7,1.51,126.50,31.00
2017-05-15 18:00, 1.05,5.9,2.05,122.50,28.00
2017-05-15 19:00, 1.03,5.7,1.64,123.50,29.00
2017-05-15 20:00, 1.08,5.7,1.89,127.50,29.00
2017-05-15 21:00, 1.05,6.3,1.61,128.50,32.00
2017-05-15 22:00, 1.15,6.1,2.10,124.50,28.00
2017-05-15 23:00, 1.09,6.1,2.11,121.50,33.00
2017-05-16 00:00, 1.12,6.1,1.83,126.50,33.00
2017-05-16 01:00, 1.17,6.7,2.07,127.50,29.00
2017-05-16 02:00, 1.14,6.3,2.23,125.50,31.00
2017-05-16 03:00, 1.02,6.3,1.69,121.50,33.00
2017-05-16 04:00, 1.16,6.1,1.93,122.50,29.00
2017-05-16 05:00, 1.15,6.5,1.70,128.50,33.00
2017-05-16 06:00, 1.07,6.5,2.08,129.50,30.00
2017-05-16 07:00, 1.00,7.4,1.72,125.50,33.00
2017-05-16 08:00, 1.08,6.3,1.96,125.50,30.00
2017-05-16 10:00, 1.07,6.7,1.76,129.50,27.00
2017-05-16 11:00, 1.08,6.3,1.62,125.50,32.00
2017-05-16 12:00, 1.17,7.1,1.65,128.50,32.00
2017-05-16 13:00, 1.21,7.1,1.98,128.50,31.00
2017-05-16 16:00, 1.26,6.7,2.37,127.50,33.00
2017-05-16 17:00, 1.29,5.7,2.06,131.50,34.00
2017-05-16 19:00, 1.22,7.1,2.11,136.50,33.00
2017-05-16 20:00, 1.27,6.9,2.18,131.50,30.00
2017-05-16 21:00, 1.23,7.1,2.11,134.50,29.00
2017-05-16 22:00, 1.27,7.4,1.84,132.50,29.00
2017-05-17 00:00, 1.20,6.7,1.81,132.50,32.00
2017-05-17 01:00, 1.39,7.1,2.10,133.50,27.00
2017-05-17 04:00, 1.26,7.7,2.01,131.50,29.00
2017-05-17 05:00, 1.20,7.1,2.13,137.50,30.00
2017-05-17 06:00, 1.24,7.1,2.01,139.50,27.00
2017-05-17 07:00, 1.21,6.9,2.05,133.50,31.00
2017-05-17 08:00, 1.16,6.7,1.67,132.50,32.00
2017-05-17 10:00, 1.17,6.7,1.79,133.50,31.00
2017-05-17 11:00, 1.20,6.7,1.75,128.50,29.00
2017-05-17 17:00, 1.47,,2.68,125.50,34.00
2017-05-17 18:00, 1.54,5.4,2.80,122.50,29.00
2017-05-17 19:00, 1.49,6.1,2.86,124.50,30.00
2017-05-17 20:00, 1.35,6.5,1.95,123.50,33.00
2017-05-17 21:00, 1.37,6.5,2.22,124.50,32.00
2017-05-17 22:00, 1.35,6.5,2.18,120.50,31.00
2017-05-17 23:00, 1.41,5.7,2.10,128.50,30.00
2017-05-18 00:00, 1.50,5.9,2.19,122.50,30.00
2017-05-18 01:00, 1.45,6.1,2.54,118.50,31.00
2017-05-18 02:00, 1.46,6.7,2.20,117.50,30.00
2017-05-18 03:00, 1.52,6.7,2.45,118.50,28.00
2017-05-18 04:00, 1.48,6.5,2.51,118.50,28.00
2017-05-18 05:00, 1.51,6.9,2.27,123.50,29.00
2017-05-18 06:00, 1.35,6.9,2.05,123.50,32.00
2017-05-18 07:00, 1.41,6.5,2.55,119.50,29.00
2017-05-18 08:00, 1.52,6.7,2.39,120.50,31.00
2017-05-18 10:00, 1.54,6.9,3.03,121.50,29.00
2017-05-18 11:00, 1.50,6.5,2.75,117.50,29.00
2017-05-18 12:00, 1.53,6.1,2.84,114.50,30.00
2017-05-18 16:00, 1.50,6.1,2.34,116.50,31.00
2017-05-18 18:00, 1.48,7.1,2.56,114.50,30.00
2017-05-18 21:00, 1.49,6.3,2.16,118.50,29.00
2017-05-18 22:00, 1.44,7.4,2.42,119.50,29.00
2017-05-18 23:00, 1.58,6.7,2.61,121.50,27.00
2017-05-19 00:00, 1.49,7.1,3.03,120.50,26.00
2017-05-19 01:00, 1.45,6.5,2.21,122.50,25.00
2017-05-19 02:00, 1.46,6.9,2.33,125.50,25.00
2017-05-19 03:00, 1.31,7.1,2.54,121.50,28.00
2017-05-19 04:00, 1.37,6.9,2.17,122.50,23.00
2017-05-19 06:00, 1.38,6.9,2.28,123.50,25.00
2017-05-19 07:00, 1.18,7.1,2.10,120.50,28.00
2017-05-19 09:00, 1.31,6.5,2.66,120.50,23.00
2017-05-19 10:00, 1.36,6.7,2.16,114.50,26.00
2017-05-19 11:00, 1.40,6.7,2.98,116.50,25.00
2017-05-19 12:00, 1.36,6.5,1.99,117.50,25.00
2017-05-19 15:00, 1.41,6.5,2.28,115.50,26.00
2017-05-19 16:00, 1.35,6.1,2.27,115.50,27.00
2017-05-19 17:00, 1.33,6.3,2.50,117.50,28.00
2017-05-19 18:00, 1.23,6.7,2.56,116.50,26.00
2017-05-19 19:00, 1.17,6.5,1.79,116.50,27.00
2017-05-19 20:00, 1.13,5.7,1.95,118.50,29.00
2017-05-19 21:00, 1.28,6.7,2.11,119.50,23.00
2017-05-19 22:00, 1.18,6.3,2.10,117.50,27.00
2017-05-19 23:00, 1.13,5.9,1.91,117.50,28.00
2017-05-20 00:00, 1.09,6.7,1.64,122.50,29.00
2017-05-20 03:00, 0.96,7.7,1.37,123.50,26.00
2017-05-20 05:00, 0.92,6.9,1.41,123.50,27.00
2017-05-20 08:00, 0.89,7.1,1.30,125.50,27.00
2017-05-20 10:00, 0.94,6.7,1.59,126.50,26.00
2017-05-20 11:00, 0.90,5.7,1.46,126.50,27.00
2017-05-20 12:00, 0.95,6.9,1.47,127.50,25.00
2017-05-20 13:00, 0.91,6.3,1.45,125.50,27.00
2017-05-20 14:00, 0.94,6.5,1.54,129.50,26.00
2017-05-20 15:00, 1.03,6.7,1.86,124.50,28.00
2017-05-20 17:00, 1.06,5.7,1.94,121.50,28.00
2017-05-20 19:00, 1.08,6.9,1.51,121.50,32.00
2017-05-20 20:00, 1.08,,1.67,119.50,33.00
2017-05-20 22:00, 1.10,6.1,1.83,124.50,29.00
2017-05-20 23:00, 1.04,6.5,1.50,123.50,29.00
2017-05-21 00:00, 1.01,5.1,1.60,130.50,30.00
2017-05-21 03:00, 0.93,6.9,1.46,129.50,28.00
2017-05-21 04:00, 0.89,5.9,1.34,126.50,30.00
2017-05-21 06:00, 0.90,5.4,1.51,121.50,30.00
2017-05-21 07:00, 0.89,5.4,1.63,124.50,29.00
2017-05-21 08:00, 0.89,6.1,1.33,120.50,29.00
2017-05-21 09:00, 0.85,4.9,1.61,119.50,29.00
2017-05-21 10:00, 0.93,5.7,1.52,121.50,27.00
2017-05-21 11:00, 0.95,5.3,1.62,124.50,26.00
2017-05-21 12:00, 0.96,5.0,1.45,122.50,25.00
2017-05-21 13:00, 1.00,5.4,1.67,122.50,26.00
2017-05-21 14:00, 0.97,5.1,1.56,115.50,29.00
2017-05-21 16:00, 1.09,4.8,1.72,116.50,29.00
2017-05-21 17:00, 1.08,5.6,1.83,118.50,29.00
2017-05-21 18:00, 1.07,,1.91,113.50,32.00
2017-05-21 20:00, 1.11,5.4,1.60,122.50,28.00
2017-05-21 21:00, 1.06,6.7,1.78,118.50,29.00
2017-05-21 22:00, 1.14,5.6,1.87,116.50,29.00
2017-05-21 23:00, 1.13,4.2,1.77,117.50,31.00
2017-05-22 00:00, 1.07,5.7,1.74,119.50,32.00
2017-05-22 01:00, 1.12,6.3,1.80,118.50,29.00
2017-05-22 03:00, 1.00,4.9,1.72,116.50,32.00
2017-05-22 04:00, 1.01,5.9,1.76,119.50,29.00
2017-05-22 05:00, 0.95,4.5,1.62,122.50,30.00
2017-05-22 06:00, 0.94,5.9,1.43,121.50,31.00
2017-05-22 08:00, 0.86,5.3,1.78,122.50,28.00
2017-05-22 10:00, 0.88,6.5,1.33,124.50,27.00
2017-05-22 11:00, 0.90,5.0,1.36,123.50,25.00
2017-05-22 12:00, 0.93,6.1,1.23,124.50,26.00
2017-05-22 14:00, 1.06,5.6,1.78,116.50,29.00
2017-05-22 15:00, 1.06,4.9,1.67,114.50,29.00
2017-05-22 16:00, 1.06,,1.61,116.50,31.00
2017-05-22 17:00, 1.13,,1.92,111.50,33.00
2017-05-22 18:00, 1.09,4.2,2.02,112.50,33.00
2017-05-22 19:00, 1.12,5.1,1.62,119.50,28.00
2017-05-22 20:00, 0.96,6.5,1.60,119.50,31.00
2017-05-22 21:00, 1.02,5.9,1.51,118.50,31.00
2017-05-22 22:00, 1.03,4.1,1.99,118.50,29.00
2017-05-22 23:00, 1.01,4.7,1.49,118.50,33.00
2017-05-23 02:00, 0.94,4.8,1.48,118.50,30.00
2017-05-23 03:00, 0.97,4.5,1.49,116.50,29.00
2017-05-23 04:00, 0.99,5.0,1.91,118.50,31.00
2017-05-23 05:00, 1.07,5.1,1.64,115.50,32.00
2017-05-23 06:00, 1.08,4.3,1.72,117.50,30.00
2017-05-23 07:00, 1.06,5.6,2.04,117.50,28.00
2017-05-23 08:00, 0.93,5.7,1.58,119.50,28.00
2017-05-23 10:00, 0.87,6.5,1.54,121.50,30.00
2017-05-23 11:00, 0.84,5.4,1.25,122.50,31.00
2017-05-23 12:00, 0.99,5.3,1.96,120.50,30.00
2017-05-23 13:00, 1.01,5.3,1.58,116.50,30.00
2017-05-23 14:00, 0.99,5.7,1.70,118.50,33.00
2017-05-23 15:00, 1.05,4.9,1.75,121.50,32.00
2017-05-23 16:00, 1.09,5.3,1.68,119.50,33.00
2017-05-23 18:00, 1.05,,1.75,122.50,33.00
2017-05-23 20:00, 1.06,5.4,1.83,122.50,29.00
2017-05-23 21:00, 1.13,5.6,1.94,118.50,32.00
2017-05-23 23:00, 1.04,5.3,1.92,121.50,33.00
2017-05-24 00:00, 1.09,6.3,1.86,124.50,31.00
2017-05-24 01:00, 1.12,6.1,1.74,118.50,30.00
2017-05-24 04:00, 1.11,5.7,1.91,117.50,31.00
2017-05-24 05:00, 1.23,4.9,2.00,114.50,29.00
2017-05-24 06:00, 1.25,4.7,1.92,111.50,31.00
2017-05-24 07:00, 1.28,5.9,2.06,119.50,29.00
2017-05-24 09:00, 1.19,4.8,1.97,118.50,30.00
2017-05-24 10:00, 1.28,5.1,2.12,114.50,32.00
2017-05-24 11:00, 1.39,5.6,2.71,122.50,26.00
2017-05-24 12:00, 1.41,6.1,2.49,127.50,34.00
2017-05-24 14:00, 1.32,5.9,2.30,121.50,30.00
2017-05-24 16:00, 1.32,6.1,2.16,123.50,31.00
2017-05-24 17:00, 1.23,6.1,1.89,128.50,30.00
2017-05-24 18:00, 1.33,6.5,2.14,125.50,31.00
2017-05-24 19:00, 1.27,6.7,2.53,128.50,30.00
2017-05-24 21:00, 1.25,6.5,1.95,127.50,30.00
2017-05-24 23:00, 1.25,6.9,1.96,126.50,31.00
2017-05-25 01:00, 1.15,6.5,2.08,123.50,30.00
2017-05-25 03:00, 1.11,6.5,1.56,126.50,34.00
2017-05-25 04:00, 1.15,6.9,2.12,125.50,30.00
2017-05-25 05:00, 1.07,6.3,1.60,125.50,31.00
2017-05-25 06:00, 1.07,6.5,1.69,124.50,31.00
2017-05-25 07:00, 1.14,6.5,1.64,127.50,30.00
2017-05-25 08:00, 1.17,6.5,1.87,124.50,29.00
2017-05-25 09:00, 1.02,6.3,1.61,124.50,33.00
2017-05-25 11:00, 0.99,5.1,1.80,124.50,32.00
2017-05-25 12:00, 1.11,4.5,2.02,125.50,31.00
2017-05-25 13:00, 1.16,6.9,1.67,122.50,31.00
2017-05-25 14:00, 1.23,5.9,1.91,123.50,31.00
2017-05-25 15:00, 1.28,6.5,1.93,115.50,32.00
2017-05-25 18:00, 1.26,5.1,2.05,117.50,30.00
2017-05-25 22:00, 1.34,5.9,2.09,120.50,30.00
2017-05-25 23:00, 1.18,6.3,1.89,120.50,31.00
2017-05-26 00:00, 1.16,5.7,1.88,119.50,30.00
2017-05-26 01:00, 1.24,5.9,2.03,123.50,30.00
2017-05-26 03:00, 1.20,6.5,1.96,125.50,30.00
2017-05-26 04:00, 1.20,5.7,1.89,121.50,27.00
2017-05-26 06:00, 1.15,6.5,1.76,119.50,30.00
2017-05-26 07:00, 1.16,5.0,1.83,119.50,27.00
2017-05-26 08:00, 0.98,5.1,1.68,119.50,31.00
2017-05-26 09:00, 0.98,5.7,1.75,118.50,30.00
2017-05-26 10:00, 1.02,5.6,1.62,119.50,28.00
2017-05-26 11:00, 1.07,5.7,1.65,123.50,25.00
2017-05-26 12:00, 0.98,5.9,1.49,125.50,26.00
2017-05-26 13:00, 1.00,5.7,1.80,120.50,28.00
2017-05-26 15:00, 1.07,5.6,1.80,116.50,28.00
2017-05-26 16:00, 1.07,5.9,1.57,120.50,28.00
2017-05-26 17:00, 1.06,5.9,1.93,122.50,30.00
2017-05-26 19:00, 1.00,5.7,1.52,120.50,32.00
2017-05-26 20:00, 1.07,5.6,1.74,118.50,31.00
2017-05-26 21:00, 1.00,5.9,1.55,121.50,33.00
2017-05-26 22:00, 0.90,4.7,1.43,118.50,33.00
2017-05-27 00:00, 0.90,5.6,1.39,121.50,33.00
2017-05-27 05:00, 0.79,5.7,1.21,120.50,30.00
2017-05-27 07:00, 0.82,4.1,1.27,115.50,31.00
2017-05-27 08:00, 0.85,5.1,1.37,113.50,32.00
2017-05-27 09:00, 0.87,5.4,1.60,121.50,31.00
2017-05-27 12:00, 0.84,4.8,1.32,120.50,34.00
2017-05-27 13:00, 1.01,,1.88,113.50,33.00
2017-05-27 14:00, 1.02,5.7,1.60,109.50,33.00
2017-05-27 15:00, 1.16,5.4,2.24,112.50,31.00
2017-05-27 16:00, 1.11,5.0,1.88,118.50,28.00
2017-05-27 17:00, 1.09,5.0,2.09,117.50,29.00
2017-05-27 18:00, 1.14,5.1,1.89,121.50,30.00
2017-05-27 20:00, 1.01,5.1,1.60,111.50,33.00
2017-05-27 21:00, 1.06,5.0,1.54,118.50,34.00
2017-05-27 22:00, 0.94,5.4,1.64,113.50,35.00
2017-05-27 23:00, 0.90,5.0,1.45,118.50,33.00
2017-05-28 00:00, 0.82,5.4,1.42,119.50,35.00
2017-05-28 02:00, 0.75,5.9,1.33,117.50,32.00
2017-05-28 04:00, 0.78,5.4,1.42,113.50,32.00
2017-05-28 05:00, 0.83,5.4,1.46,117.50,30.00
2017-05-28 06:00, 0.79,5.4,1.44,119.50,27.00
2017-05-28 08:00, 0.69,5.7,1.47,115.50,29.00
2017-05-28 09:00, 0.70,4.8,1.25,115.50,32.00
2017-05-28 10:00, 0.76,5.7,1.30,117.50,31.00
2017-05-28 11:00, 0.80,4.8,1.21,113.50,28.00
2017-05-28 13:00, 0.73,5.1,1.38,116.50,28.00
2017-05-28 14:00, 0.84,5.0,1.55,115.50,30.00
2017-05-28 15:00, 0.87,5.4,1.39,115.50,34.00
2017-05-28 16:00, 0.91,5.0,1.30,106.50,31.00
2017-05-28 17:00, 0.90,4.8,1.60,120.50,30.00
2017-05-28 18:00, 1.00,5.4,1.54,121.50,30.00
2017-05-28 20:00, 1.11,,1.59,107.50,32.00
2017-05-29 01:00, 1.06,5.1,1.59,107.50,30.00
2017-05-29 02:00, 1.06,5.0,1.71,108.50,29.00
2017-05-29 03:00, 1.03,5.6,2.03,113.50,29.00
2017-05-29 05:00, 0.98,5.7,1.66,111.50,28.00
2017-05-29 06:00, 0.99,5.3,1.75,115.50,25.00
2017-05-29 08:00, 0.94,6.1,1.56,118.50,26.00
2017-05-29 09:00, 0.93,5.3,1.32,112.50,28.00
2017-05-29 10:00, 0.85,5.6,1.23,111.50,30.00
2017-05-29 11:00, 0.80,5.3,1.33,113.50,30.00
2017-05-29 12:00, 0.79,5.6,1.25,114.50,28.00
2017-05-29 13:00, 0.89,5.4,1.54,115.50,28.00
2017-05-29 14:00, 1.01,5.4,1.85,118.50,30.00
2017-05-29 16:00, 1.09,6.1,1.80,113.50,31.00
2017-05-29 17:00, 1.13,5.7,1.66,118.50,32.00
2017-05-29 20:00, 1.30,6.1,2.27,120.50,29.00
2017-05-29 21:00, 1.23,5.1,2.17,119.50,27.00
2017-05-29 22:00, 1.13,5.9,1.68,118.50,30.00
2017-05-29 23:00, 1.11,5.9,2.00,116.50,30.00
2017-05-30 00:00, 1.14,5.9,1.90,117.50,31.00
2017-05-30 01:00, 1.07,6.1,1.67,115.50,28.00
2017-05-30 02:00, 1.04,5.7,1.95,119.50,29.00
2017-05-30 03:00, 1.08,6.5,1.96,113.50,31.00
2017-05-30 04:00, 1.05,6.3,1.65,114.50,28.00
2017-05-30 05:00, 1.03,6.5,1.55,116.50,30.00
2017-05-30 06:00, 1.13,6.3,1.81,116.50,30.00
2017-05-30 08:00, 1.16,6.7,1.94,115.50,27.00
2017-05-30 09:00, 1.20,6.1,2.08,115.50,30.00
2017-05-30 10:00, 1.21,6.3,1.97,113.50,28.00
2017-05-30 11:00, 1.19,5.9,2.04,116.50,28.00
2017-05-30 12:00, 1.18,6.5,1.77,118.50,30.00
2017-05-30 14:00, 1.13,6.1,1.77,115.50,32.00
2017-05-30 15:00, 1.24,5.9,2.20,115.50,28.00
2017-05-30 17:00, 1.24,5.6,1.95,117.50,28.00
2017-05-30 19:00, 1.20,6.3,1.93,116.50,31.00
2017-05-30 21:00, 1.24,6.3,2.05,118.50,28.00
2017-05-30 23:00, 1.12,5.6,1.82,121.50,28.00
2017-05-31 01:00, 1.20,6.3,2.10,119.50,32.00
2017-05-31 04:00, 1.14,6.9,2.03,121.50,28.00
2017-05-31 05:00, 1.34,6.3,2.18,122.50,26.00
2017-05-31 07:00, 1.27,5.4,2.63,117.50,28.00
2017-05-31 12:00, 1.31,6.9,2.08,118.50,28.00
2017-05-31 15:00, 1.24,6.7,2.12,115.50,30.00
2017-05-31 16:00, 1.27,6.9,2.16,118.50,27.00
2017-05-31 20:00, 1.37,6.9,2.28,122.50,24.00
2017-05-31 21:00, 1.17,6.3,2.02,122.50,25.00
2017-05-31 22:00, 1.13,6.5,1.84,121.50,27.00
2017-05-31 23:00, 1.22,6.3,1.83,119.50,27.00
2017-06-01 01:00, 1.09,5.7,1.71,121.50,27.00